This is the latest recevied weather packets stored in our database for station/object WC4PEM-15. If no packets are shown the sender has not sent any weather packets the latest 1 day(s).
| Time | Temp. | Humidity | Pressure | Rain* | Wind** | Luminosity | Snow |
|---|---|---|---|---|---|---|---|
| 1777999201 | 27.22° C | 55% | 1016 hPa | 0 mm | 3.13 m/s, 113° | - | - |
| 1777998994 | 27.22° C | 55% | 1015.9 hPa | 0 mm | 2.68 m/s, 71° | - | - |
| 1777998901 | 27.22° C | 55% | 1015.9 hPa | 0 mm | 2.68 m/s, 71° | - | - |
| 1777998670 | 27.22° C | 56% | 1016.1 hPa | 0 mm | 3.13 m/s, 153° | - | - |
| 1777998601 | 27.22° C | 56% | 1016.1 hPa | 0 mm | 3.13 m/s, 153° | - | - |
| 1777998570 | 27.22° C | 54% | 1016.1 hPa | 0 mm | 3.58 m/s, 127° | - | - |
| 1777998301 | 27.78° C | 54% | 1016.2 hPa | 0 mm | 3.13 m/s, 120° | - | - |
| 1777998087 | 27.78° C | 53% | 1016.2 hPa | 0 mm | 4.02 m/s, 71° | - | - |
| 1777998001 | 27.78° C | 53% | 1016.2 hPa | 0 mm | 4.02 m/s, 71° | - | - |
| 1777997802 | 27.78° C | 55% | 1016.1 hPa | 0 mm | 4.47 m/s, 92° | - | - |
| 1777997701 | 27.78° C | 55% | 1016.1 hPa | 0 mm | 4.47 m/s, 92° | - | - |
| 1777997401 | 27.22° C | 54% | 1016.1 hPa | 0 mm | 3.58 m/s, 127° | - | - |
| 1777997209 | 27.22° C | 54% | 1016.1 hPa | 0 mm | 4.02 m/s, 92° | - | - |
| 1777997161 | 27.22° C | 54% | 1016.1 hPa | 0 mm | 4.02 m/s, 92° | - | - |
| 1777997101 | 27.22° C | 54% | 1016.1 hPa | 0 mm | 4.02 m/s, 92° | - | - |
| 1777996975 | 27.78° C | 52% | 1016.3 hPa | 0 mm | 4.47 m/s, 111° | - | - |
| 1777996876 | 27.78° C | 52% | 1016.3 hPa | 0 mm | 4.47 m/s, 111° | - | - |
| 1777996801 | 27.78° C | 52% | 1016.3 hPa | 0 mm | 4.47 m/s, 111° | - | - |
| 1777996668 | 27.78° C | 54% | 1016.2 hPa | 0 mm | 3.58 m/s, 84° | - | - |
| 1777996501 | 27.78° C | 54% | 1016.2 hPa | 0 mm | 3.58 m/s, 84° | - | - |
| 1777996257 | 27.78° C | 52% | 1016 hPa | 0 mm | 3.58 m/s, 103° | - | - |
| 1777996201 | 27.78° C | 52% | 1016 hPa | 0 mm | 3.58 m/s, 103° | - | - |
| 1777995972 | 27.78° C | 53% | 1016.1 hPa | 0 mm | 4.02 m/s, 106° | - | - |
| 1777995901 | 27.78° C | 53% | 1016.1 hPa | 0 mm | 4.02 m/s, 106° | - | - |
| 1777995640 | 27.22° C | 54% | 1016.3 hPa | 0 mm | 4.47 m/s, 110° | - | - |
* Rain latest hour (hover to see other rain measurements)
** Current wind speed in m/s (hover to see current wind gust speed)